FAB009 SLET-SLCB

Flight info

Callsign FAB009
Flight time 0h 34m
Altitude 32000
Route SANSO UM793 CBA
Aircraft LJ35/M-SGHRWXY/SB1

Departure

Time 2026-04-27 03:20
Airport El Trompillo Airport (SLET)

Arrival

Time 2026-04-27 03:54
Airport Jorge Wilsterman International Airport (SLCB)
Time Latitude Longitude Altitude Speed Heading
2026-04-27 03:09 -17.80558 -63.17740 1366 ft 0 kts 148°
2026-04-27 03:15 -17.80565 -63.17736 1366 ft 4 kts 148°
2026-04-27 03:15 -17.80590 -63.17718 1366 ft 1 kts 126°
2026-04-27 03:15 -17.80586 -63.17706 1367 ft 0 kts 50°
2026-04-27 03:18 -17.80582 -63.17700 1367 ft 2 kts 53°
2026-04-27 03:18 -17.80560 -63.17670 1367 ft 7 kts 53°
2026-04-27 03:18 -17.80549 -63.17654 1367 ft 0 kts 53°
2026-04-27 03:19 -17.80546 -63.17651 1367 ft 5 kts 53°
2026-04-27 03:19 -17.80540 -63.17595 1368 ft 10 kts 156°
2026-04-27 03:19 -17.80740 -63.17453 1366 ft 93 kts 144°
2026-04-27 03:19 -17.81568 -63.16835 1780 ft 182 kts 147°
2026-04-27 03:20 -17.82709 -63.15960 2930 ft 218 kts 145°
2026-04-27 03:20 -17.84015 -63.15006 4245 ft 240 kts 146°
2026-04-27 03:20 -17.85538 -63.14117 5500 ft 261 kts 163°
2026-04-27 03:20 -17.87368 -63.14027 6794 ft 270 kts 194°
2026-04-27 03:21 -17.89038 -63.14847 8113 ft 270 kts 221°
2026-04-27 03:21 -17.90274 -63.16329 9549 ft 266 kts 241°
2026-04-27 03:21 -17.91156 -63.17993 10880 ft 263 kts 250°
2026-04-27 03:21 -17.91581 -63.19842 12207 ft 259 kts 263°
2026-04-27 03:22 -17.92128 -63.21656 13552 ft 261 kts 251°
2026-04-27 03:22 -17.92703 -63.23462 14766 ft 264 kts 262°
2026-04-27 03:22 -17.92547 -63.25394 16021 ft 272 kts 288°
2026-04-27 03:22 -17.91777 -63.27229 17423 ft 277 kts 294°
2026-04-27 03:23 -17.91006 -63.29090 18825 ft 279 kts 289°
2026-04-27 03:23 -17.90410 -63.31034 20150 ft 280 kts 285°
2026-04-27 03:23 -17.89886 -63.33006 21509 ft 281 kts 286°
2026-04-27 03:23 -17.89311 -63.34972 22901 ft 281 kts 289°
2026-04-27 03:24 -17.88706 -63.36914 24190 ft 279 kts 289°
2026-04-27 03:24 -17.88128 -63.38815 25364 ft 276 kts 288°
2026-04-27 03:24 -17.87560 -63.40730 26536 ft 273 kts 288°
2026-04-27 03:24 -17.86996 -63.42622 27700 ft 269 kts 288°
2026-04-27 03:25 -17.86438 -63.44476 28852 ft 264 kts 288°
2026-04-27 03:25 -17.85890 -63.46296 29988 ft 259 kts 287°
2026-04-27 03:25 -17.85355 -63.48079 30915 ft 253 kts 288°
2026-04-27 03:25 -17.84831 -63.49822 31822 ft 248 kts 287°
2026-04-27 03:26 -17.84287 -63.51634 32056 ft 275 kts 287°
2026-04-27 03:26 -17.83682 -63.53650 32079 ft 306 kts 287°
2026-04-27 03:26 -17.83010 -63.55882 32088 ft 336 kts 287°
2026-04-27 03:26 -17.82278 -63.58316 32092 ft 364 kts 287°
2026-04-27 03:27 -17.81499 -63.60905 32094 ft 389 kts 287°
2026-04-27 03:27 -17.80660 -63.63693 32106 ft 412 kts 287°
2026-04-27 03:27 -17.79775 -63.66629 32106 ft 432 kts 287°
2026-04-27 03:27 -17.78849 -63.69697 32102 ft 449 kts 287°
2026-04-27 03:28 -17.77892 -63.72867 32102 ft 462 kts 287°
2026-04-27 03:28 -17.75935 -63.79352 32097 ft 468 kts 287°
2026-04-27 03:29 -17.73959 -63.85882 32096 ft 469 kts 287°
2026-04-27 03:29 -17.71979 -63.92425 32110 ft 470 kts 287°
2026-04-27 03:30 -17.69999 -63.98951 32127 ft 468 kts 287°
2026-04-27 03:30 -17.68022 -64.05463 32111 ft 468 kts 287°
2026-04-27 03:31 -17.66036 -64.11991 32132 ft 468 kts 287°
2026-04-27 03:31 -17.64062 -64.18483 32128 ft 468 kts 288°
2026-04-27 03:32 -17.62076 -64.24997 32142 ft 473 kts 288°
2026-04-27 03:32 -17.60069 -64.31570 32143 ft 474 kts 288°
2026-04-27 03:33 -17.58061 -64.38144 32146 ft 473 kts 288°
2026-04-27 03:33 -17.56048 -64.44721 32147 ft 474 kts 288°
2026-04-27 03:34 -17.54034 -64.51291 32165 ft 471 kts 288°
2026-04-27 03:34 -17.52936 -64.58018 32160 ft 470 kts 274°
2026-04-27 03:35 -17.52514 -64.64805 32177 ft 470 kts 274°
2026-04-27 03:35 -17.52069 -64.71639 32147 ft 470 kts 274°
2026-04-27 03:36 -17.51634 -64.78468 32177 ft 470 kts 274°
2026-04-27 03:36 -17.51186 -64.85311 32180 ft 470 kts 274°
2026-04-27 03:37 -17.50744 -64.92144 32180 ft 470 kts 274°
2026-04-27 03:37 -17.50295 -64.98979 32197 ft 470 kts 274°
2026-04-27 03:38 -17.49845 -65.05814 32198 ft 470 kts 274°
2026-04-27 03:38 -17.49393 -65.12639 32224 ft 470 kts 274°
2026-04-27 03:39 -17.48938 -65.19476 32222 ft 470 kts 274°
2026-04-27 03:39 -17.48481 -65.26272 32252 ft 470 kts 274°
2026-04-27 03:40 -17.48029 -65.33102 32228 ft 471 kts 275°
2026-04-27 03:40 -17.47558 -65.39951 32266 ft 472 kts 275°
2026-04-27 03:41 -17.47886 -65.46778 32249 ft 474 kts 254°
2026-04-27 03:41 -17.50642 -65.53060 32283 ft 476 kts 242°
2026-04-27 03:42 -17.53696 -65.59192 32299 ft 474 kts 246°
2026-04-27 03:42 -17.56237 -65.65552 32302 ft 473 kts 253°
2026-04-27 03:43 -17.57879 -65.72172 32309 ft 472 kts 258°
2026-04-27 03:43 -17.59230 -65.78891 32318 ft 463 kts 259°
2026-04-27 03:43 -17.59849 -65.82096 32307 ft 433 kts 259°
2026-04-27 03:44 -17.60428 -65.85120 32072 ft 415 kts 259°
2026-04-27 03:44 -17.60986 -65.88039 31574 ft 406 kts 259°
2026-04-27 03:44 -17.61537 -65.90955 30727 ft 409 kts 259°
2026-04-27 03:44 -17.62086 -65.93886 29847 ft 410 kts 259°
2026-04-27 03:45 -17.62629 -65.96822 28929 ft 411 kts 259°
2026-04-27 03:45 -17.63170 -65.99782 27616 ft 418 kts 259°
2026-04-27 03:45 -17.63646 -66.02823 26266 ft 426 kts 265°
2026-04-27 03:45 -17.63759 -66.05939 24987 ft 430 kts 270°
2026-04-27 03:46 -17.63719 -66.08029 24171 ft 432 kts 272°
2026-04-27 03:46 -17.63572 -66.11176 22814 ft 432 kts 273°
2026-04-27 03:46 -17.63315 -66.15291 20895 ft 417 kts 273°
2026-04-27 03:46 -17.63173 -66.17298 19791 ft 416 kts 274°
2026-04-27 03:47 -17.62944 -66.20318 18154 ft 413 kts 274°
2026-04-27 03:47 -17.62480 -66.23261 16416 ft 409 kts 286°
2026-04-27 03:47 -17.61227 -66.25926 14764 ft 405 kts 305°
2026-04-27 03:47 -17.59268 -66.27990 13532 ft 400 kts 327°
2026-04-27 03:48 -17.56712 -66.29197 13646 ft 409 kts 341°
2026-04-27 03:48 -17.53944 -66.30023 13748 ft 418 kts 346°
2026-04-27 03:48 -17.51077 -66.30496 13847 ft 425 kts 354°
2026-04-27 03:48 -17.48100 -66.30669 13957 ft 431 kts 358°
2026-04-27 03:49 -17.45377 -66.30727 13949 ft 320 kts 359°
2026-04-27 03:49 -17.43501 -66.30734 13914 ft 228 kts 360°
2026-04-27 03:49 -17.42035 -66.30720 13309 ft 200 kts 360°
2026-04-27 03:49 -17.40616 -66.30700 12248 ft 197 kts
2026-04-27 03:50 -17.39312 -66.30677 11361 ft 180 kts
2026-04-27 03:50 -17.38111 -66.30497 10508 ft 178 kts 23°
2026-04-27 03:50 -17.37207 -66.29586 9610 ft 187 kts 57°
2026-04-27 03:50 -17.36675 -66.28386 9221 ft 166 kts 68°
2026-04-27 03:51 -17.36435 -66.27257 9038 ft 158 kts 98°
2026-04-27 03:51 -17.37176 -66.26356 9326 ft 189 kts 150°
2026-04-27 03:51 -17.38529 -66.25871 9383 ft 217 kts 165°
2026-04-27 03:51 -17.40017 -66.25516 9697 ft 220 kts 168°
2026-04-27 03:52 -17.41424 -66.25217 9872 ft 187 kts 171°
2026-04-27 03:52 -17.42634 -66.24958 9580 ft 181 kts 168°
2026-04-27 03:52 -17.43775 -66.24522 9767 ft 173 kts 136°
2026-04-27 03:52 -17.44554 -66.23433 10059 ft 184 kts 121°
2026-04-27 03:53 -17.45057 -66.22373 10116 ft 154 kts 103°
2026-04-27 03:53 -17.45111 -66.21214 9797 ft 171 kts 77°
2026-04-27 03:53 -17.44697 -66.20023 9314 ft 167 kts 59°
2026-04-27 03:53 -17.43920 -66.19177 8801 ft 163 kts 36°
2026-04-27 03:54 -17.43039 -66.18457 8456 ft 158 kts 39°
2026-04-27 03:54 -17.42246 -66.17818 8356 ft 106 kts 38°
2026-04-27 03:54 -17.41989 -66.17620 8356 ft 0 kts 30°
2026-04-27 03:54 -17.41982 -66.17619 8356 ft 2 kts 346°
2026-04-27 03:55 -17.41939 -66.17657 8356 ft 14 kts 294°
2026-04-27 03:55 -17.41851 -66.17750 8355 ft 23 kts 314°
2026-04-27 03:55 -17.41740 -66.17883 8355 ft 24 kts 313°
2026-04-27 03:55 -17.41650 -66.17924 8355 ft 14 kts 22°
2026-04-27 03:56 -17.41600 -66.17870 8356 ft 9 kts 136°
2026-04-27 03:56 -17.41605 -66.17847 8356 ft 1 kts 17°
2026-04-27 03:56 -17.41594 -66.17855 8356 ft 3 kts 310°
2026-04-27 03:56 -17.41592 -66.17857 8356 ft 0 kts 311°